EHI
0 0 0 0 0 0 0 0 0 0 0 0 0 0 0 0 0 0 0 0 0 0 0 0 0 1 3 3 2 1 1 2 3 1 1 2 1 0 0 0 0 0 0 0
0 0 0 0 0 0 0 0 0 0 0 0 0 0 0 0 0 0 0 0 0 0 0 0 0 0 1 2 2 1 1 2 3 2 2 2 2 1 0 0 0 0 0 1
0 0 0 0 0 0 0 0 0 0 0 0 0 0 0 0 0 0 0 0 0 0 0 0 0 0 0 1 2 3 2 2 3 3 3 3 2 1 0 0 0 1 1 1
0 0 0 0 0 0 0 0 0 0 0 0 0 0 0 0 0 0 0 0 0 0 0 0 0 0 0 1 2 2 2 1 2 3 3 3 2 1 0 0 1 2 2 2
0 0 0 0 0 0 0 0 0 0 0 0 0 0 0 0 0 0 0 0 0 0 0 0 0 0 0 0 1 1 1 1 2 3 3 3 2 1 0 1 2 3 3 3
0 0 0 0 0 0 0 0 0 0 0 0 0 0 0 1 1 1 0 0 0 0 0 0 0 0 0 0 0 0 0 0 1 2 3 3 3 1 1 2 3 3 3 3
0 0 0 0 0 0 0 0 0 0 0 0 0 0 0 1 1 1 0 0 0 0 0 0 0 0 0 0 0 0 0 0 0 1 2 3 3 3 3 3 3 3 3 3
0 0 0 0 0 0 0 0 0 0 0 0 0 0 0 0 0 0 0 0 0 0 0 0 0 0 0 0 0 0 0 0 0 0 1 2 3 3 3 3 3 2 2 1
0 0 0 0 0 0 0 0 0 0 0 0 0 0 0 0 0 0 0 0 0 0 0 0 0 0 0 0 0 0 0 0 0 0 0 1 3 3 3 2 1 1 1 0
0 0 0 0 0 0 0 0 0 0 0 0 0 0 0 0 0 0 0 0 0 0 0 0 0 0 0 0 0 0 0 0 0 0 0 1 2 3 3 2 1 1 1 1
0 0 0 0 0 0 0 0 0 0 0 0 0 0 0 0 0 0 0 0 0 0 0 0 0 0 0 0 0 0 0 0 0 0 0 1 1 2 2 2 2 2 2 2
0 0 0 0 0 0 0 0 0 0 0 0 0 0 0 0 0 0 0 0 0 0 0 0 0 0 0 0 0 0 0 0 0 0 0 1 1 1 1 1 1 1 1 1
0 0 0 0 0 0 0 0 0 0 0 0 0 0 0 0 0 0 0 0 0 0 0 0 0 0 0 0 0 0 0 0 0 0 0 0 0 0 0 0 0 0 0 0
0 0 0 0 0 0 0 0 0 0 0 0 0 0 0 0 0 0 0 0 0 0 0 0 0 0 0 0 0 0 0 0 0 0 0 0 0 0 0 0 0 0 0 0
0 0 0 0 0 0 0 0 0 0 0 0 0 0 0 0 0 0 0 0 0 0 0 0 0 0 0 0 0 0 0 0 0 0 0 0 0 0 0 0 0 0 0 0
0 0 0 0 0 0 0 0 0 0 0 0 0 0 0 0 0 0 0 0 0 0 0 0 0 0 0 0 0 0 0 0 0 0 0 0 0 0 0 0 0 0 0 0
0 0 0 0 0 0 0 0 0 0 0 0 0 0 0 0 0 0 0 0 0 0 0 0 0 0 0 0 0 0 0 0 0 0 0 0 0 0 0 0 0 0 0 0
0 0 0 0 0 0 0 0 0 0 0 0 0 0 0 0 0 0 0 0 0 0 0 0 0 0 0 0 0 0 0 0 0 0 0 0 0 0 0 0 0 0 0 0
0 0 0 0 0 0 0 0 0 0 0 0 0 0 0 0 0 0 0 0 0 0 0 0 0 0 0 0 0 0 0 0 0 0 0 0 0 0 0 0 0 0 0 0
0 0 0 0 0 0 0 0 0 0 0 0 0 0 0 0 0 0 0 0 0 0 0 0 0 0 0 0 0 0 0 0 0 0 0 0 0 0 0 0 0 0 0 0
0 0 0 0 0 0 0 0 0 0 0 0 0 0 0 0 0 0 0 0 0 0 0 0 0 0 0 0 0 0 0 0 0 0 0 0 0 0 0 0 0 0 0 0
0 0 0 0 0 0 0 0 0 0 0 0 0 0 0 0 0 0 0 0 0 0 0 0 0 0 0 0 0 0 0 0 0 0 0 0 0 0 0 0 0 0 0 0
0 0 0 0 0 0 0 0 0 0 0 0 0 0 0 0 0 0 0 0 0 0 0 0 0 0 0 0 0 0 0 0 0 0 0 0 0 0 0 0 0 0 0 0
0 0 0 0 0 0 0 0 0 0 0 0 0 0 0 0 0 0 0 0 0 0 0 0 0 0 0 0 0 0 0 0 0 0 0 0 0 0 0 0 0 0 0 0
0 0 0 0 0 0 0 0 0 0 0 0 0 0 0 0 0 0 0 0 0 0 0 0 0 0 0 0 0 0 0 0 0 0 0 0 0 0 0 0 0 0 0 0
0 0 0 0 0 0 0 0 0 0 0 0 0 0 0 0 0 0 0 0 0 0 0 0 0 0 0 0 0 0 0 0 0 0 0 0 0 0 0 0 0 0 0 0
0 0 0 0 0 0 0 0 0 0 0 0 0 0 0 0 0 0 0 0 0 0 0 0 0 0 0 0 0 0 0 0 0 0 0 0 0 0 0 0 0 0 0 0
Wind_Speed
6 5 5 7 8 9 11 11 10 9 8 7 4 4 3 3 3 2 2 1 1 1 1 1 1 1 1 1 1 2 2 3 3 2 3 3 3 3 3 3 4 4 4 3
6 5 6 9 11 12 13 12 12 12 10 6 3 3 4 4 3 3 3 2 2 1 1 2 2 2 1 1 2 2 2 2 2 2 2 2 2 3 3 3 3 4 4 3
6 4 7 11 10 11 10 10 10 11 8 4 4 4 4 3 3 4 3 3 2 2 2 2 2 2 2 2 2 2 2 2 2 2 2 2 2 2 3 3 3 4 4 4
5 5 10 1 1 4 7 7 8 8 6 5 5 4 4 3 4 4 3 3 3 3 2 2 2 2 2 1 2 2 2 2 2 2 2 2 2 2 3 3 3 4 4 4
5 7 8 4 3 4 5 6 5 6 5 3 3 4 4 2 3 3 3 3 2 2 2 2 1 2 2 2 2 2 2 2 2 2 2 3 3 3 3 3 3 3 3 4
6 7 7 1 3 2 5 5 2 3 4 3 4 5 2 0 1 2 2 1 1 1 1 1 1 2 2 2 2 3 3 3 2 2 3 3 3 3 3 3 3 3 3 4
10 9 7 1 3 5 6 0 3 2 3 3 4 3 2 2 1 1 1 1 1 2 2 1 2 2 2 2 3 3 3 3 2 3 3 3 3 3 3 2 3 3 3 3
7 9 6 5 6 6 1 3 2 2 2 3 3 3 2 2 1 1 1 1 2 2 2 1 2 2 2 2 2 2 3 3 3 3 3 3 3 3 3 3 3 3 3 3
7 5 1 5 4 2 1 2 2 2 2 3 3 4 3 3 2 2 2 2 2 2 2 2 2 2 3 2 2 2 3 3 3 3 3 3 3 3 3 3 3 3 3 3
7 8 6 6 5 4 4 4 3 3 3 4 5 5 4 4 3 3 2 2 2 3 3 2 2 3 3 2 2 3 3 3 3 3 3 3 2 3 3 3 3 3 3 3
10 7 6 7 7 6 5 4 4 4 4 5 5 5 5 5 4 3 3 2 2 3 3 3 3 3 3 2 3 3 3 2 3 2 2 3 3 3 4 3 3 4 3 3
8 7 6 5 5 6 6 6 6 5 5 5 5 5 5 5 4 4 3 3 3 3 3 3 3 3 3 3 3 3 2 2 2 2 2 2 2 2 2 4 3 4 5 4
7 4 5 4 5 6 6 6 6 5 5 5 5 5 5 5 4 4 4 4 4 4 4 4 4 4 3 3 3 4 3 3 2 3 3 3 3 3 2 2 3 4 5 4
6 5 6 7 6 5 5 5 4 4 4 4 4 4 4 4 4 4 4 4 4 4 4 4 4 4 3 3 4 4 4 3 3 3 3 3 3 4 3 3 3 2 3 4
8 8 7 5 5 5 4 4 4 4 4 3 3 3 3 4 4 4 4 4 4 4 4 4 4 4 3 3 4 4 3 2 2 3 3 3 3 3 3 3 3 2 2 2
7 6 7 7 7 6 5 5 5 5 4 4 3 3 3 3 4 4 3 3 4 4 4 4 4 4 3 4 4 3 3 3 3 3 3 3 3 3 2 2 3 3 3 2
8 7 7 7 7 7 7 6 5 5 5 5 4 3 3 3 3 4 4 3 4 4 4 4 4 3 4 4 4 3 3 3 3 3 3 3 3 3 3 2 3 3 3 2
8 7 7 7 6 6 6 6 5 5 5 4 4 3 4 4 4 4 4 4 4 4 4 4 3 4 4 4 3 3 3 3 3 2 2 2 3 3 3 3 3 3 2 2
6 6 5 5 5 5 5 5 5 5 4 4 4 4 4 4 4 4 4 4 4 4 4 3 3 4 4 3 3 3 3 3 3 2 2 2 3 3 3 3 3 3 2 2
5 5 5 5 4 5 4 4 4 4 4 4 4 4 4 4 4 4 4 4 4 3 3 3 3 3 3 3 3 3 3 3 3 3 2 2 3 3 3 3 3 3 3 3
5 5 5 5 4 4 5 5 4 4 4 4 5 5 5 4 4 4 4 4 4 3 3 3 3 3 2 2 3 3 3 3 3 3 3 3 3 3 3 3 3 3 3 3
5 5 5 5 4 4 4 4 4 4 4 4 4 5 4 4 4 5 5 4 3 2 2 3 3 2 2 3 3 3 3 3 3 2 3 3 3 3 4 4 4 4 4 3
4 5 5 5 5 5 5 5 5 4 4 5 5 5 5 4 4 4 4 3 2 3 3 3 2 3 3 3 3 3 3 3 3 3 3 3 4 4 4 4 4 4 4 4
4 4 4 4 4 5 5 5 4 4 4 5 5 5 4 3 3 3 3 2 2 3 3 2 2 3 4 3 3 3 3 3 3 3 4 4 4 3 3 3 3 3 4 4
4 4 4 5 5 4 5 4 4 4 4 3 4 4 3 3 3 2 2 2 2 2 2 2 3 3 3 3 3 3 3 3 3 3 3 3 3 3 3 3 3 3 3 3
4 4 4 5 4 3 3 3 3 3 3 3 3 2 2 1 2 2 2 2 2 2 2 2 2 2 2 2 3 3 3 3 3 2 3 2 3 3 3 3 4 3 3 3
4 3 3 3 3 3 3 3 4 4 3 3 3 2 2 1 1 2 2 2 2 2 1 1 1 2 2 2 2 2 2 2 2 2 2 2 2 3 3 4 3 3 3 3
Wind_Direction
269 278 260 256 248 236 238 249 259 264 262 264 262 265 276 274 256 227 215 210 202 179 156 160 170 192 180 174 181 193 194 201 221 230 234 232 222 224 225 223 227 229 226 228
252 250 256 260 253 245 245 248 252 260 264 264 254 246 254 256 246 230 221 222 229 228 212 206 199 205 193 182 196 198 207 206 211 232 236 239 236 224 226 227 232 234 234 238
253 255 266 255 244 234 233 235 242 251 260 242 243 243 249 256 253 243 235 229 235 245 238 228 225 218 214 198 193 195 212 222 205 218 238 242 246 233 229 230 230 237 240 241
262 252 248 261 63 233 230 245 247 256 263 250 249 247 253 257 255 254 255 247 243 246 247 240 220 211 217 208 204 207 214 219 225 230 239 242 237 238 241 240 234 238 241 239
240 250 264 249 208 213 227 250 248 248 239 242 238 233 229 239 264 277 274 267 259 259 251 236 210 205 204 206 211 219 229 232 236 236 237 240 235 237 239 245 245 244 247 247
230 245 253 213 131 202 237 237 193 228 227 232 232 244 240 358 279 281 279 268 261 248 240 223 198 201 211 221 226 229 237 243 242 245 242 241 243 244 248 247 249 251 247 248
232 243 259 175 153 188 224 232 119 212 227 220 245 292 348 345 300 277 264 266 253 244 241 230 203 207 224 231 241 251 253 250 244 246 248 245 244 242 237 234 242 247 248 247
219 230 238 138 172 211 265 66 161 203 212 229 272 301 302 304 297 284 273 263 246 236 236 228 212 217 233 252 269 272 263 255 250 251 252 246 238 242 235 225 229 234 239 245
222 238 28 175 213 227 233 215 217 220 226 244 261 267 275 274 263 267 269 259 249 237 236 232 223 233 249 268 276 267 265 265 259 257 252 245 239 238 239 232 232 235 232 238
239 242 238 232 235 231 231 244 251 247 240 241 255 262 265 260 250 245 251 252 250 241 237 246 247 248 259 269 263 256 262 269 260 255 255 244 241 238 237 236 236 237 238 241
241 244 243 235 228 228 228 238 245 252 254 249 251 253 255 256 250 250 250 245 246 252 250 256 259 259 262 257 253 254 260 269 266 255 255 251 249 255 254 248 252 251 246 244
240 232 229 235 226 229 230 231 235 244 251 252 250 254 253 252 248 248 252 253 249 253 258 260 261 263 263 257 253 256 261 277 278 265 255 247 250 271 290 260 259 260 266 268
257 243 248 252 241 233 235 233 235 241 245 250 251 252 252 249 245 242 245 248 250 256 262 264 259 259 261 256 253 257 261 270 281 275 263 254 248 251 268 272 225 231 238 243
231 229 236 234 231 226 226 226 232 240 244 250 252 252 248 243 241 242 248 254 255 256 259 258 255 258 257 252 251 256 262 270 275 271 266 258 256 256 253 250 253 246 222 216
228 234 236 230 217 214 217 218 223 231 238 244 244 242 242 239 241 246 251 254 251 253 256 260 259 262 255 245 250 255 262 267 271 276 271 266 263 263 259 255 259 260 251 211
221 225 222 218 215 213 216 220 228 234 236 238 241 243 246 247 250 249 248 250 251 259 265 266 267 268 256 243 244 251 259 275 278 276 273 268 264 265 264 259 261 256 251 247
213 218 217 216 216 219 224 229 235 240 241 239 241 245 244 242 243 245 248 250 256 266 273 274 273 268 255 247 244 251 254 249 257 264 266 269 269 268 266 257 256 258 257 258
223 226 223 220 218 220 225 230 234 242 246 247 242 235 234 236 244 251 255 253 257 264 272 276 278 270 256 250 247 250 251 250 250 258 262 263 272 273 270 266 259 262 264 242
217 218 219 218 219 220 227 236 239 243 245 238 231 232 236 240 249 255 256 254 257 266 276 288 296 272 261 255 257 249 248 250 254 258 260 262 263 268 270 267 261 258 256 251
207 205 203 206 214 223 232 238 239 239 237 234 233 232 235 238 244 248 248 251 257 270 282 292 278 271 269 255 248 249 244 242 246 253 256 256 260 265 266 264 261 259 254 252
200 200 201 204 214 228 238 243 241 239 237 233 234 236 239 239 238 242 247 255 263 270 273 276 269 269 264 260 246 251 243 240 244 252 257 261 264 266 264 261 259 257 256 255
204 202 206 211 217 229 237 244 243 241 239 237 242 244 243 240 240 244 245 256 265 264 256 256 262 277 276 260 246 246 245 243 244 247 253 259 261 261 260 257 252 256 258 259
207 209 213 219 226 236 239 238 236 235 234 238 242 243 242 243 242 246 253 252 254 257 259 260 281 278 259 248 252 250 249 247 246 246 248 251 252 253 253 253 252 250 253 253
216 220 225 227 227 230 233 234 234 236 237 241 242 242 242 241 243 244 255 241 249 250 254 258 258 257 251 250 250 253 254 253 253 252 250 250 254 257 257 256 255 254 248 247
223 224 223 221 226 232 235 233 233 236 237 238 242 242 241 239 244 247 244 235 228 239 252 252 250 253 251 254 251 252 255 258 263 263 259 259 260 262 264 265 263 263 259 251
228 227 228 229 235 237 230 225 229 233 232 234 236 236 238 238 237 235 231 227 224 235 248 252 250 250 251 254 254 257 257 257 255 256 262 265 266 266 267 267 267 268 267 264
235 232 230 232 233 230 229 228 232 233 232 230 235 237 234 228 224 227 226 224 217 220 233 246 254 255 254 250 250 254 258 262 264 267 267 265 267 269 272 271 270 271 268 260